{"data":{"norad_id":49458,"intl_designator":"2021-104BC","name":"STARLINK-3156","alt_names":[],"object_type":"PAYLOAD","status":"ACTIVE","operator":null,"country":"US","launch_date":"2021-11-13","launch_site_code":"AFETR","launch_vehicle":null,"mission":null,"orbit_class":"UNKNOWN","rcs_meters":null,"size_class":null,"mass_kg":null,"dimensions":null,"purposes":["comms"],"wikipedia_slug":null,"has_3d_model":false,"image_url":null,"decayed_at":null,"tle_current":{"epoch":"2026-09-20T03:16:23.899008Z","epoch_age_seconds":76374,"freshness":"FRESH","line1":"1 49458U 21104BC  26263.13638772 -.00001142  00000+0 -23422-4 0  9990","line2":"2 49458  53.1599  53.5346 0001370  92.9099 267.2060 15.33529036268308","mean_motion":15.33529036,"eccentricity":0.000137,"inclination_deg":53.1599,"raan_deg":53.5346,"arg_perigee_deg":92.9099,"mean_anomaly_deg":267.206,"bstar":-2.3422e-5,"rev_number":26830,"period_min":93.901058682009,"perigee_km":464.35560395341,"apogee_km":466.23070381558,"semimajor_km":6843.4301538845,"source":"CELESTRAK","updated_at":"2026-09-20T09:00:39.402307Z"}}}